STARLINK-1209, 45206

Orbit data source: Space-Track

STARLINK-1209, 45206 is a payload satellite owned by SpaceX/Seattle (US) in LEO that was launched on Mon, 17 Feb 2020 UTC via an FALCON 9 launch vehicle from the Air Force Eastern Test Range (AFETR). Payloads include a variety of satellites, spacecraft, and rockets equipped with specific instruments for various scientific and technological missions. These include communications satellites like Starlink; space stations such as the ISS; scientific satellites like the Hubble; Earth observation satellites from companies like Planet Labs, Umbra, and HawkEye 360; GPS; miniature CubeSats for education and research; and military/defense satellites.

Loading next visibility...
STARLINK-1209 details
Identifier
45206, 2020-012AE
Orbit
LEO
Last TLE update8 hours ago
Origin
Flag of USSpaceX/Seattle (US)
ManufacturerSpaceX/Seattle
MissionOperational Commercial Communications
Bus & MotorSTARLINK, Unknown motor
Mass260 kg wet, ~248 kg dry
Launch date (UTC)
2020-02-17 (5 years ago)
Launch vehicle
FALCON 9
Launch site
Air Force Eastern Test Range (AFETR)
Object type
Payload
Rocket body
Debris
Shape & HBRBox + 1 Pan, 8.86 m
Radar Cross Section13.562 m², Large (>1 m²)

Expand to show TLE details & history

TLE from 8 hours ago
0 STARLINK-1209
1 45206U 20012AE  24361.19059579  .00000005  00000-0  19255-4 0  9994
2 45206  53.0545 175.1132 0001491  88.7513 271.3646 15.06395883268359
Epoch: 2024-12-26T04:34Z
Definitive object data (Epoch: 2024-12-26T04:34:27.476Z)
Latitude-0.00007°
Longitude11.32512°
Altitude548.079 km
Speed7.589 km/s
True Right ascension11h 40m 27s
True Declination0° 00' 00"
Sunlit
Object was in daylight at TLE epoch
Visualization TLE readout
Latitude-52.83372°
Longitude-89.47609°
Altitude566.613 km
Speed7.577 km/s
Apparent Right ascension01h 57m 27s
Apparent Declination-54° 21' 20"
Sunlit
Object is in daylight
Visualization observer readout
Local Sidereal Time11:28:11
Azimuth227.308° WSW
Elevation-61.272°
Doppler factor1
Orbital elements
Apogee altitude548.528 km
Perigee altitude546.462 km
Semi-major axis6,925.632 km
Eccentricity0.0001491
Inclination53.0545°
RAAN175.1132°
Arg. of periapsis88.7513°
True anomaly271.34752°
Mean anomaly271.3646°
Eccentric anomaly271.35606°
Mean motion3.76577 °/min
BSTAR0.000019255
Orbital period95.6 mins
Loading maneuver chart data...

STARLINK-1209 Visibility forecast

Observer location: undefined°, undefined

Span
Click to sort rows by Start time (UTC) header in descending order
Start Az.
Max El. time (UTC)
Max El. Az.
Max El.
End time (UTC)
End Az.
7 mins2024-12-26 14:17:43.749Z209.184° SW2024-12-26 14:20:43.749Z142.998° SSE38.811°2024-12-26 14:24:43.749Z58.734° ENE
5 mins2024-12-26 15:58:43.749Z291.94° WNW2024-12-26 16:00:43.749Z337.728° N24.823°2024-12-26 16:03:43.749Z30.236° NE
4 mins2024-12-26 19:20:43.749Z352.241° N2024-12-26 19:21:43.749Z9.42° NNE16.095°2024-12-26 19:24:43.749Z57.022° ENE
6 mins2024-12-26 20:59:43.749Z323.313° NNW2024-12-26 21:02:43.749Z60.405° ENE38.351°2024-12-26 21:05:43.749Z112.262° ESE
4 mins2024-12-26 22:39:43.749Z266.005° W2024-12-26 22:41:43.749Z228.092° WSW19.426°2024-12-26 22:43:43.749Z192.759° SSW
|